Total_Precipitation_Accumulation
0.00 0.00 0.01 0.01 0.01 0.02 0.03 0.07 0.14 0.22 0.17 0.25 0.33 0.44 0.59 0.76 0.99 1.02 1.10 1.21 1.43 1.73 2.14 2.82 3.51 4.08 4.74 5.50 6.08 5.92 5.27 4.75 4.13 3.57 3.01 2.86 2.62 2.35 2.09 1.88 1.65 1.63 1.55 1.35
0.01 0.03 0.03 0.02 0.02 0.03 0.04 0.08 0.13 0.18 0.15 0.15 0.26 0.53 0.69 0.78 0.95 0.91 0.91 0.94 1.13 1.48 2.09 2.88 3.50 3.70 3.71 3.99 4.24 3.74 3.52 3.49 3.06 2.72 2.62 2.46 2.25 2.03 1.81 1.68 1.59 1.33 1.29 1.22
0.02 0.04 0.03 0.03 0.03 0.04 0.07 0.09 0.10 0.16 0.17 0.22 0.36 0.70 0.92 0.85 0.84 0.73 0.71 0.91 1.38 1.77 2.21 2.73 2.90 2.91 2.80 2.79 2.77 2.55 2.47 2.75 2.66 2.59 2.49 2.39 2.32 2.23 1.96 1.63 1.53 1.27 1.13 1.10
0.01 0.03 0.03 0.04 0.05 0.05 0.07 0.06 0.04 0.05 0.12 0.35 0.51 0.91 1.09 1.00 0.94 0.67 0.71 1.08 1.59 1.91 2.17 2.17 1.78 1.66 1.81 1.90 1.99 2.24 2.30 2.41 2.32 2.35 2.13 1.90 1.75 1.62 1.52 1.45 1.43 1.42 1.24 1.13
0.03 0.03 0.03 0.04 0.04 0.04 0.04 0.04 0.03 0.06 0.15 0.39 0.66 1.08 1.26 1.06 0.87 0.62 0.59 0.67 1.04 1.26 1.23 1.03 0.89 0.97 1.21 1.46 1.70 2.07 2.15 2.16 2.05 2.00 2.00 2.01 1.88 1.82 1.68 1.61 1.67 1.66 1.63 1.43
0.04 0.04 0.04 0.03 0.03 0.03 0.03 0.04 0.10 0.20 0.38 0.82 0.86 0.95 1.19 1.01 0.80 0.61 0.42 0.45 0.70 0.74 0.60 0.62 0.70 0.89 1.13 1.30 1.41 1.61 1.78 1.95 1.99 2.01 2.07 2.02 1.96 1.98 1.79 1.62 1.53 1.52 1.54 1.50
0.09 0.08 0.06 0.04 0.03 0.04 0.03 0.05 0.26 0.60 0.89 1.01 0.73 0.87 1.17 0.78 0.52 0.41 0.29 0.26 0.30 0.34 0.43 0.60 0.66 0.86 0.98 1.09 1.11 1.21 1.33 1.54 1.66 1.74 1.87 1.92 1.94 1.95 1.76 1.63 1.49 1.45 1.37 1.33
0.15 0.14 0.08 0.04 0.05 0.05 0.04 0.04 0.10 0.21 0.33 0.53 0.69 1.07 1.15 0.75 0.41 0.25 0.20 0.19 0.19 0.23 0.30 0.35 0.39 0.48 0.62 0.79 0.98 1.13 1.17 1.19 1.22 1.28 1.48 1.66 1.69 1.70 1.64 1.67 1.46 1.36 1.30 1.31
0.05 0.04 0.04 0.04 0.05 0.03 0.04 0.03 0.04 0.05 0.08 0.31 0.73 1.01 0.92 0.58 0.40 0.29 0.24 0.25 0.22 0.22 0.30 0.26 0.25 0.32 0.41 0.47 0.62 0.84 0.92 0.93 0.96 1.03 1.18 1.28 1.33 1.45 1.55 1.52 1.37 1.22 1.26 1.29
0.02 0.02 0.03 0.03 0.03 0.04 0.04 0.03 0.03 0.05 0.10 0.23 0.57 1.04 1.18 0.81 0.56 0.40 0.33 0.26 0.23 0.24 0.25 0.27 0.27 0.28 0.30 0.32 0.45 0.62 0.77 0.81 0.84 0.89 0.96 0.95 1.09 1.20 1.33 1.36 1.32 1.20 1.17 1.25
0.02 0.02 0.02 0.03 0.04 0.06 0.05 0.04 0.05 0.06 0.07 0.15 0.42 0.67 0.67 0.69 0.56 0.36 0.31 0.28 0.24 0.25 0.26 0.31 0.27 0.31 0.27 0.27 0.34 0.46 0.64 0.73 0.69 0.73 0.80 0.90 0.99 1.16 1.24 1.24 1.29 1.25 1.23 1.25
0.02 0.01 0.02 0.04 0.06 0.06 0.07 0.07 0.07 0.08 0.08 0.11 0.20 0.34 0.38 0.41 0.44 0.48 0.40 0.34 0.35 0.37 0.31 0.30 0.27 0.30 0.25 0.26 0.32 0.40 0.47 0.56 0.61 0.69 0.77 0.87 0.96 1.06 1.18 1.16 1.22 1.31 1.28 1.26
0.02 0.01 0.03 0.10 0.15 0.14 0.10 0.09 0.08 0.08 0.08 0.08 0.19 0.34 0.34 0.29 0.33 0.38 0.38 0.41 0.43 0.37 0.35 0.30 0.33 0.34 0.28 0.29 0.34 0.39 0.48 0.59 0.67 0.75 0.85 0.88 0.85 0.93 1.07 1.14 1.17 1.24 1.30 1.33
0.02 0.02 0.03 0.08 0.16 0.20 0.19 0.14 0.10 0.07 0.06 0.06 0.11 0.22 0.23 0.33 0.41 0.38 0.40 0.47 0.43 0.30 0.30 0.30 0.31 0.33 0.38 0.40 0.44 0.49 0.61 0.67 0.73 0.68 0.73 0.80 0.85 0.99 1.13 1.17 1.19 1.23 1.25 1.30
0.02 0.02 0.02 0.02 0.06 0.12 0.17 0.16 0.11 0.06 0.05 0.06 0.07 0.13 0.21 0.36 0.46 0.48 0.48 0.49 0.43 0.33 0.31 0.33 0.35 0.36 0.38 0.45 0.48 0.54 0.66 0.67 0.70 0.82 0.90 0.98 1.01 1.09 1.22 1.31 1.28 1.32 1.34 1.35
0.04 0.04 0.03 0.03 0.05 0.08 0.11 0.14 0.10 0.06 0.06 0.05 0.07 0.14 0.26 0.43 0.48 0.51 0.47 0.43 0.40 0.40 0.36 0.41 0.44 0.45 0.44 0.48 0.55 0.63 0.70 0.74 0.88 1.17 1.28 1.29 1.33 1.38 1.40 1.42 1.40 1.46 1.53 1.70
0.11 0.09 0.07 0.05 0.07 0.08 0.13 0.12 0.10 0.09 0.08 0.08 0.12 0.21 0.29 0.41 0.55 0.62 0.55 0.43 0.42 0.40 0.43 0.48 0.59 0.64 0.59 0.58 0.64 0.73 0.77 0.82 0.96 1.18 1.31 1.40 1.43 1.46 1.53 1.55 1.57 1.60 1.67 1.75
0.19 0.19 0.15 0.10 0.10 0.17 0.16 0.14 0.15 0.13 0.13 0.16 0.25 0.36 0.40 0.42 0.48 0.52 0.44 0.43 0.46 0.47 0.54 0.62 0.62 0.70 0.74 0.77 0.80 0.91 1.03 1.14 1.21 1.30 1.40 1.54 1.59 1.64 1.67 1.66 1.60 1.59 1.64 1.64
0.24 0.27 0.24 0.21 0.20 0.18 0.17 0.20 0.22 0.21 0.26 0.29 0.41 0.52 0.58 0.56 0.54 0.63 0.56 0.53 0.54 0.59 0.63 0.72 0.81 0.82 0.88 1.00 1.07 1.10 1.25 1.38 1.45 1.50 1.66 1.79 1.88 1.94 1.86 1.76 1.76 1.71 1.67 1.53
0.29 0.33 0.38 0.33 0.34 0.34 0.27 0.31 0.30 0.32 0.54 0.53 0.58 0.68 0.74 0.75 0.92 0.98 0.75 0.70 0.65 0.63 0.67 0.72 0.87 1.03 1.02 1.13 1.24 1.28 1.31 1.33 1.40 1.46 1.57 1.73 1.83 1.99 2.07 2.02 1.98 1.87 1.79 1.68
0.42 0.45 0.42 0.41 0.43 0.39 0.37 0.35 0.37 0.66 0.90 0.83 0.80 0.80 0.88 1.01 0.95 0.88 0.75 0.74 0.73 0.67 0.68 0.70 0.78 0.94 1.01 1.07 1.17 1.29 1.33 1.28 1.30 1.30 1.31 1.44 1.64 1.85 1.99 2.06 2.00 1.97 1.89 1.78
0.61 0.65 0.60 0.54 0.68 0.77 0.55 0.45 0.65 0.91 0.92 1.00 0.93 0.91 0.96 1.00 1.01 0.95 0.88 0.82 0.77 0.67 0.67 0.71 0.75 0.82 0.94 1.10 1.29 1.43 1.44 1.40 1.38 1.42 1.52 1.60 1.67 1.70 1.71 1.76 1.79 1.84 1.83 1.75
0.79 0.84 0.82 0.82 0.96 0.89 0.65 0.66 0.74 0.76 0.92 0.98 0.94 0.96 0.99 0.97 0.96 0.90 0.82 0.79 0.83 0.75 0.73 0.71 0.78 0.86 0.99 1.19 1.41 1.62 1.64 1.65 1.66 1.67 1.69 1.68 1.72 1.73 1.73 1.66 1.62 1.59 1.52 1.40
0.88 0.75 0.90 1.09 1.22 1.04 0.87 0.78 0.79 0.85 0.93 0.98 0.96 1.02 1.02 0.95 0.88 0.85 0.82 0.80 0.87 0.87 0.80 0.78 0.79 0.84 0.95 1.05 1.19 1.41 1.51 1.56 1.64 1.60 1.51 1.44 1.41 1.42 1.45 1.47 1.45 1.45 1.41 1.34
0.96 0.94 1.06 1.39 1.58 1.43 1.24 1.04 0.93 1.02 1.16 1.23 1.20 1.13 1.05 1.06 1.07 1.12 1.07 0.95 0.88 0.88 0.90 0.87 0.87 0.90 0.93 0.97 1.02 1.12 1.24 1.35 1.51 1.56 1.49 1.46 1.43 1.40 1.42 1.46 1.53 1.45 1.38 1.34
0.87 1.07 1.28 1.60 1.61 1.65 1.54 1.24 1.13 1.20 1.33 1.37 1.29 1.30 1.26 1.23 1.21 1.10 1.04 0.96 0.89 0.86 0.89 0.95 0.99 1.02 1.00 1.02 1.08 1.15 1.26 1.43 1.59 1.58 1.49 1.48 1.51 1.53 1.53 1.50 1.52 1.57 1.43 1.39